Effective Sunday, March 17, 2024, the National Weather Service National Data Buoy Center will discontinue its Dial-A-Buoy Interactive Voice Response system. For more information, see Service Change Notice 24-06 (PDF).

Station BRHC3 - 8467150 - Bridgeport, CT Image indicating link to RSS feed of recent meteorological observations for station BRHC3


Conditions at BRHC3 as of
(4:54 pm EST)
2154 GMT on 02/23/2024:
     

Click on the graph icon in the table below to see a time series plot of the last five days of that observation.

5-day plot - Wind Direction Wind Direction (WDIR): S ( 180 deg true )
5-day plot - Wind Speed Wind Speed (WSPD): 1.9 kts
5-day plot - Wind Gust Wind Gust (GST): 1.9 kts
5-day plot - Atmospheric Pressure Atmospheric Pressure (PRES):29.39 in
5-day plot - Air Temperature Air Temperature (ATMP): 41.0 °F
5-day plot - Water Temperature Water Temperature (WTMP): 41.5 °F
5-day plot - Wind Speed at 10 Meters Wind Speed at 10 meters (WSPD10M): 1.9 kts
5-day plot - Wind Speed at 20 Meters Wind Speed at 20 meters (WSPD20M): 1.9 kts
5-day plot -  Wind Speed, Wind Gust and Atmospheric Pressure Combined plot of Wind Speed, Gust, and Air Pressure
NOS Water Level Observation Network Water Level
Previous observations
TIME
(EST)
5-day plot - Wind Direction
WDIR
 
5-day plot - Wind Speed
WSPD
kts
5-day plot - Wind Gust
GST
kts
5-day plot - Wave Height
WVHT
ft
5-day plot - Dominant Wave Period
DPD
sec
5-day plot - Average Wave Period
APD
sec
5-day plot - Mean Wave Direction
MWD
 
5-day plot - Atmospheric Pressure
PRES
in
5-day plot - Pressure Tendency
PTDY
in
5-day plot - Air Temperature
ATMP
°F
5-day plot - Water Temperature
WTMP
°F
5-day plot - Dew Point
DEWP
°F
5-day plot - Salinity
SAL
psu
5-day plot - Visibility
VIS
nmi
5-day plot - Tide (above MLLW)
TIDE
ft
2024-02-23 04:48 pmSSE 1.9 1.9----29.39- 41.0 41.5----
2024-02-23 04:42 pm S 1.9 1.9----29.40- 41.0 41.5----
2024-02-23 04:36 pm S 1.9 2.9----29.39- 41.0 41.5----
2024-02-23 04:30 pmSSE 2.9 2.9----29.39- 40.8 41.5----
2024-02-23 04:24 pmSSE 1.9 2.9----29.39- 41.0 41.5----
2024-02-23 04:18 pmSSE 2.9 2.9----29.39- 41.0 41.5----
2024-02-23 04:12 pmSSE 2.9 2.9----29.39- 40.8 41.5----
2024-02-23 04:06 pmSSE 1.9 2.9----29.39- 40.8 41.5----
2024-02-23 04:00 pmSSE 1.9 2.9----29.39-0.04 41.0 41.5----
2024-02-23 03:54 pmSSE 2.9 4.1----29.39- 40.8 41.5----
2024-02-23 03:48 pmSSE 1.9 2.9----29.40- 40.8 41.5----
2024-02-23 03:42 pm SE 1.0 1.9----29.39- 41.4 41.5----
2024-02-23 03:36 pm- 0.0 1.9----29.39- 41.2 41.5----
2024-02-23 03:30 pm S 1.0 2.9----29.40- 40.6 41.5----
2024-02-23 03:24 pm S 1.9 2.9----29.40- 40.6 41.5----
2024-02-23 03:18 pm S 2.9 4.1----29.40- 40.6 41.5----
2024-02-23 03:12 pm S 1.9 2.9----29.40- 40.5 41.5----
2024-02-23 03:06 pm S 2.9 4.1----29.40- 40.3 41.5----
2024-02-23 03:00 pmSSE 4.1 4.1----29.40-0.04 40.1 41.5----
2024-02-23 02:54 pmSSE 2.9 4.1----29.40- 40.1 41.5----
2024-02-23 02:48 pmSSE 2.9 2.9----29.40- 39.9 41.5----
2024-02-23 02:42 pm S 2.9 5.1----29.41- 39.9 41.5----
2024-02-23 02:36 pmSSE 5.1 5.1----29.41- 39.6 41.5----
2024-02-23 02:30 pm SE 4.1 4.1----29.41- 39.9 41.5----
2024-02-23 02:24 pmSSE 2.9 4.1----29.41- 39.9 41.5----
2024-02-23 02:18 pmSSE 4.1 5.1----29.41- 39.9 41.5----
2024-02-23 02:12 pm S 4.1 6.0----29.42- 40.1 41.5----
2024-02-23 02:06 pmSSE 6.0 7.0----29.42- 39.7 41.5----
2024-02-23 02:00 pmSSE 6.0 6.0----29.41-0.04 40.8 41.5----
2024-02-23 01:54 pm N 2.9 5.1----29.41- 44.4 41.5----
2024-02-23 01:48 pmNNE 1.9 4.1----29.41- 44.4 41.5----
2024-02-23 01:42 pm N 2.9 4.1----29.41- 43.9 41.5----
2024-02-23 01:36 pm N 2.9 5.1----29.42- 43.7 41.5----
2024-02-23 01:30 pm N 2.9 5.1----29.42- 43.9 41.4----
2024-02-23 01:24 pm N 4.1 5.1----29.42- 43.9 41.5----
2024-02-23 01:18 pm N 2.9 5.1----29.43- 43.9 41.5----
2024-02-23 01:12 pm N 4.1 5.1----29.43- 43.3 41.4----
2024-02-23 01:06 pmNNW 2.9 6.0----29.43- 43.3 41.4----
2024-02-23 01:00 pm N 2.9 7.0----29.43-0.04 43.2 41.4----
2024-02-23 12:54 pm N 2.9 5.1----29.43- 43.3 41.4----
2024-02-23 12:48 pm N 4.1 5.1----29.43- 43.2 41.4----
2024-02-23 12:42 pm N 2.9 5.1----29.44- 43.5 41.4----
2024-02-23 12:36 pm N 2.9 4.1----29.44- 43.5 41.4----
2024-02-23 12:30 pm N 2.9 4.1----29.44- 43.5 41.4----
2024-02-23 12:24 pm N 2.9 4.1----29.44- 43.3 41.4----
2024-02-23 12:18 pm N 4.1 5.1----29.44- 43.3 41.4----
2024-02-23 12:12 pm N 4.1 6.0----29.44- 43.5 41.4----
2024-02-23 12:06 pm N 1.9 4.1----29.44- 44.1 41.4----
2024-02-23 12:00 pmNNW 2.9 5.1----29.44-0.03 43.9 41.4----
2024-02-23 11:54 amNNW 1.9 5.1----29.45- 43.7 41.4----
2024-02-23 11:48 amNNW 2.9 4.1----29.45- 43.9 41.4----
2024-02-23 11:42 amNNW 1.0 1.9----29.45- 44.2 41.4----
2024-02-23 11:36 am N 1.0 2.9----29.45- 44.2 41.4----
2024-02-23 11:30 am N 2.9 5.1----29.45- 43.3 41.4----
2024-02-23 11:24 am N 2.9 5.1----29.45- 43.2 41.4----
2024-02-23 11:18 am N 2.9 5.1----29.45- 42.8 41.4----
2024-02-23 11:12 am N 2.9 5.1----29.45- 42.3 41.4----
2024-02-23 11:06 am N 1.9 4.1----29.46- 42.4 41.4----
2024-02-23 11:00 am N 1.9 5.1----29.45-0.03 42.4 41.4----
2024-02-23 10:54 am N 4.1 5.1----29.45- 42.6 41.4----
2024-02-23 10:48 am N 2.9 5.1----29.46- 42.3 41.4----
2024-02-23 10:42 amNNE 4.1 5.1----29.46- 42.1 41.4----
2024-02-23 10:36 am N 2.9 5.1----29.47- 41.7 41.4----
2024-02-23 10:30 am N 2.9 5.1----29.47- 41.5 41.4----
2024-02-23 10:24 am N 1.9 2.9----29.47- 41.5 41.4----
2024-02-23 10:18 am N 2.9 4.1----29.47- 41.7 41.4----
2024-02-23 10:12 am NE 2.9 5.1----29.47- 41.7 41.5----
2024-02-23 10:06 am N 1.9 2.9----29.47- 41.7 41.5----
2024-02-23 10:00 am N 1.0 4.1----29.48-0.01 41.5 41.5----
2024-02-23 09:54 amNNE 1.9 4.1----29.47- 41.5 41.5----
2024-02-23 09:48 amNNE 2.9 5.1----29.47- 41.2 41.5----
2024-02-23 09:42 am N 2.9 5.1----29.48- 41.0 41.5----
2024-02-23 09:36 am N 2.9 5.1----29.47- 40.8 41.4----
2024-02-23 09:30 am N 1.9 5.1----29.47- 40.8 41.4----
2024-02-23 09:24 amNNE 1.9 5.1----29.47- 40.8 41.5----
2024-02-23 09:18 amNNE 2.9 6.0----29.47- 40.8 41.5----
2024-02-23 09:12 am N 2.9 6.0----29.47- 40.6 41.5----
2024-02-23 09:06 amNNE 4.1 6.0----29.47- 40.6 41.4----
2024-02-23 09:00 am N 4.1 6.0----29.47+0.00 40.5 41.4----
2024-02-23 08:54 amNNE 4.1 6.0----29.47- 40.6 41.4----
2024-02-23 08:48 am N 1.9 4.1----29.47- 40.3 41.5----
2024-02-23 08:42 am N 1.9 4.1----29.47- 40.1 41.4----
2024-02-23 08:36 am N 2.9 4.1----29.48- 39.9 41.5----
2024-02-23 08:30 am N 2.9 5.1----29.48- 39.7 41.4----
2024-02-23 08:24 am N 4.1 6.0----29.47- 39.7 41.4----
2024-02-23 08:18 am N 2.9 4.1----29.48- 39.7 41.4----
2024-02-23 08:12 am N 1.9 4.1----29.47- 39.7 41.4----
2024-02-23 08:06 amNNE 2.9 5.1----29.47- 39.9 41.4----
2024-02-23 08:00 am N 4.1 4.1----29.48-0.01 39.7 41.4----
2024-02-23 07:54 am N 4.1 5.1----29.48- 39.6 41.4----
2024-02-23 07:48 am N 2.9 4.1----29.48- 39.6 41.4----
2024-02-23 07:42 am N 4.1 5.1----29.48- 39.6 41.4----
2024-02-23 07:36 am N 2.9 4.1----29.48- 39.4 41.4----
2024-02-23 07:30 am N 4.1 5.1----29.48- 39.4 41.4----
2024-02-23 07:24 am N 4.1 5.1----29.48- 39.4 41.4----
2024-02-23 07:18 am N 4.1 5.1----29.47- 39.4 41.5----
2024-02-23 07:12 am N 4.1 5.1----29.48- 39.4 41.5----
2024-02-23 07:06 am N 4.1 5.1----29.49- 39.4 41.5----
2024-02-23 07:00 am N 4.1 5.1----29.49-0.05 39.4 41.4----
2024-02-23 06:54 am N 5.1 5.1----29.48- 39.4 41.4----
2024-02-23 06:48 amNNW 1.9 4.1----29.49- 39.2 41.4----
2024-02-23 06:42 amNNE 2.9 2.9----29.48- 39.4 41.5----
2024-02-23 06:36 amNNW 1.9 2.9----29.49- 39.4 41.5----
2024-02-23 06:30 amNNE 1.9 2.9----29.49- 39.4 41.4----
2024-02-23 06:24 amSSW 1.0 4.1----29.49- 39.4 41.5----
2024-02-23 06:18 am NE 1.9 2.9----29.49- 39.2 41.4----
2024-02-23 06:12 am- 0.0 2.9----29.49- 39.2 41.5----
2024-02-23 06:06 am E 2.9 5.1----29.48- 39.2 41.5----
2024-02-23 06:00 amNNE 2.9 5.1----29.47-0.09 39.2 41.4----
2024-02-23 05:54 amNNE 4.1 5.1----29.48- 39.2 41.4----
2024-02-23 05:48 amNNE 2.9 5.1----29.49- 39.2 41.4----
2024-02-23 05:42 amNNE 2.9 6.0----29.49- 39.2 41.4----
2024-02-23 05:36 am NE 5.1 6.0----29.49- 39.2 41.4----
2024-02-23 05:30 am NE 2.9 5.1----29.50- 39.2 41.4----
2024-02-23 05:24 am NE 2.9 4.1----29.50- 39.2 41.4----
2024-02-23 05:18 am- 0.0 1.9----29.51- 39.2 41.4----
2024-02-23 05:12 am NE 1.9 4.1----29.51- 39.0 41.4----
2024-02-23 05:06 am NE 4.1 8.0----29.50- 39.0 41.4----
2024-02-23 05:00 am NE 6.0 8.0----29.49-0.10 39.0 41.4----
2024-02-23 04:54 amENE 5.1 8.0----29.50- 39.0 41.4----
2024-02-23 04:48 amENE 6.0 7.0----29.51- 39.0 41.4----
2024-02-23 04:42 amENE 4.1 7.0----29.51- 39.0 41.4----
2024-02-23 04:36 amENE 6.0 8.0----29.51- 39.0 41.4----
2024-02-23 04:30 amENE 5.1 8.0----29.52- 39.0 41.4----
2024-02-23 04:24 amENE 5.1 7.0----29.52- 39.0 41.4----
2024-02-23 04:18 amENE 5.1 6.0----29.52- 38.8 41.4----
2024-02-23 04:12 amENE 4.1 6.0----29.52- 38.8 41.4----
2024-02-23 04:06 am E 2.9 5.1----29.53- 38.7 41.4----
2024-02-23 04:00 amENE 2.9 4.1----29.54-0.10 38.7 41.4----
2024-02-23 03:54 amENE 2.9 5.1----29.54- 38.7 41.4----
2024-02-23 03:48 amENE 4.1 5.1----29.54- 38.7 41.4----
2024-02-23 03:42 amENE 4.1 6.0----29.54- 38.7 41.4----
2024-02-23 03:36 amENE 6.0 8.0----29.53- 38.5 41.4----
2024-02-23 03:30 amENE 4.1 7.0----29.54- 38.5 41.4----
2024-02-23 03:24 amENE 5.1 7.0----29.54- 38.5 41.4----
2024-02-23 03:18 am E 4.1 6.0----29.55- 38.5 41.4----
2024-02-23 03:12 am E 5.1 8.0----29.55- 38.5 41.4----
2024-02-23 03:06 am E 5.1 7.0----29.55- 38.3 41.4----
2024-02-23 03:00 am E 5.1 8.0----29.56-0.09 38.3 41.4----
2024-02-23 02:54 amENE 4.1 5.1----29.56- 38.3 41.4----
2024-02-23 02:48 amENE 4.1 6.0----29.56- 38.3 41.4----
2024-02-23 02:42 amENE 5.1 5.1----29.57- 38.1 41.4----
2024-02-23 02:36 amENE 5.1 7.0----29.57- 38.1 41.2----
2024-02-23 02:30 amENE 4.1 5.1----29.58- 38.1 41.2----
2024-02-23 02:24 am E 2.9 4.1----29.59- 37.9 41.2----
2024-02-23 02:18 am E 1.0 2.9----29.59- 37.9 41.2----
2024-02-23 02:12 amENE 1.9 2.9----29.59- 37.9 41.2----
2024-02-23 02:06 amENE 1.9 5.1----29.60- 37.9 41.2----
2024-02-23 02:00 amENE 1.0 4.1----29.60-0.08 37.9 41.2----
2024-02-23 01:54 am- 0.0 1.9----29.61- 37.9 41.2----
2024-02-23 01:48 amSSW 1.0 1.9----29.61- 37.9 41.2----
2024-02-23 01:42 am- 0.0 1.9----29.62- 37.8 41.2----
2024-02-23 01:36 am- 0.0 1.9----29.62- 37.9 41.2----
2024-02-23 01:30 am S 1.0 1.9----29.62- 37.9 41.2----
2024-02-23 01:24 amSSE 1.9 1.9----29.63- 37.9 41.2----
2024-02-23 01:18 amSSE 1.9 2.9----29.63- 37.9 41.2----
2024-02-23 01:12 am S 1.9 2.9----29.63- 37.9 41.2----
2024-02-23 01:06 am S 1.9 2.9----29.64- 37.8 41.2----
2024-02-23 01:00 amSSW 1.9 2.9----29.64-0.09 37.8 41.2----
2024-02-23 12:54 am S 1.0 4.1----29.64- 37.8 41.2----
2024-02-23 12:48 am S 1.9 2.9----29.64- 37.8 41.2----
2024-02-23 12:42 am S 1.9 4.1----29.64- 37.8 41.2----
2024-02-23 12:36 am S 1.9 2.9----29.64- 37.8 41.2----
2024-02-23 12:30 am S 1.9 4.1----29.65- 37.8 41.2----
2024-02-23 12:24 am SE 1.9 6.0----29.65- 37.6 41.2----
2024-02-23 12:18 am SE 2.9 4.1----29.65- 37.6 41.2----
2024-02-23 12:12 am SE 1.9 5.1----29.65- 37.6 41.2----
2024-02-23 12:06 am SE 5.1 6.0----29.66- 37.6 41.2----
2024-02-23 12:00 am SE 4.1 5.1----29.66-0.11 37.6 41.2----
2024-02-22 11:54 pm SE 4.1 5.1----29.66- 37.6 41.2----
2024-02-22 11:48 pmSSE 1.9 5.1----29.66- 37.8 41.2----
2024-02-22 11:42 pm S 1.9 2.9----29.66- 37.8 41.2----
2024-02-22 11:36 pmESE 1.9 5.1----29.66- 37.6 41.2----
2024-02-22 11:30 pmESE 2.9 5.1----29.67- 37.6 41.2----
2024-02-22 11:24 pm SE 1.0 5.1----29.67- 37.6 41.2----
2024-02-22 11:18 pm E 4.1 6.0----29.67- 37.6 41.2----
2024-02-22 11:12 pmESE 1.9 4.1----29.67- 37.6 41.2----
2024-02-22 11:06 pm- 0.0 4.1----29.68- 37.6 41.2----
2024-02-22 11:00 pm- 0.0 1.0----29.68-0.09 37.4 41.2----
2024-02-22 10:54 pm- 0.0 1.0----29.69- 37.6 41.2----
2024-02-22 10:48 pm- 0.0 4.1----29.69- 37.6 41.4----
2024-02-22 10:42 pm SE 1.9 2.9----29.70- 37.6 41.4----
2024-02-22 10:36 pm SE 1.9 6.0----29.70- 37.6 41.4----
2024-02-22 10:30 pmSSE 4.1 5.1----29.70- 37.8 41.4----
2024-02-22 10:24 pm SE 5.1 8.0----29.71- 37.8 41.4----
2024-02-22 10:18 pm SE 5.1 7.0----29.71- 37.8 41.4----
2024-02-22 10:12 pmSSE 5.1 9.9----29.72- 37.8 41.4----
2024-02-22 10:06 pmSSE 7.0 8.0----29.72- 37.9 41.4----
2024-02-22 10:00 pmSSE 4.1 7.0----29.73-0.05 37.8 41.4----
2024-02-22 09:54 pmSSE 2.9 8.0----29.74- 37.8 41.4----
2024-02-22 09:48 pm SE 2.9 7.0----29.74- 37.8 41.4----
2024-02-22 09:42 pmSSE 6.0 8.0----29.75- 37.9 41.2----
2024-02-22 09:36 pmSSE 5.1 7.0----29.75- 37.8 41.2----
2024-02-22 09:30 pmSSE 4.1 7.0----29.75- 37.8 41.2----
2024-02-22 09:24 pm S 6.0 7.0----29.75- 37.8 41.2----
2024-02-22 09:18 pm SE 2.9 5.1----29.75- 37.6 41.2----
2024-02-22 09:12 pmSSE 2.9 5.1----29.75- 37.8 41.2----
2024-02-22 09:06 pmSSE 4.1 5.1----29.76- 37.8 41.2----
2024-02-22 09:00 pm S 1.0 5.1----29.76-0.02 37.8 41.2----
2024-02-22 08:54 pmSSW 2.9 7.0----29.77- 37.8 41.2----
2024-02-22 08:48 pm S 5.1 6.0----29.77- 37.8 41.2----
2024-02-22 08:42 pm S 5.1 6.0----29.76- 37.6 41.2----
2024-02-22 08:36 pm S 5.1 7.0----29.76- 37.6 41.2----
2024-02-22 08:30 pm S 5.1 7.0----29.77- 37.6 41.2----
2024-02-22 08:24 pmSSW 5.1 8.0----29.77- 37.6 41.2----
2024-02-22 08:18 pm S 4.1 7.0----29.77- 37.6 41.2----
2024-02-22 08:12 pm S 4.1 7.0----29.77- 37.6 41.2----
2024-02-22 08:06 pmSSW 5.1 7.0----29.78- 37.6 41.2----
2024-02-22 08:00 pm S 5.1 8.0----29.78-0.03 37.6 41.2----
2024-02-22 07:54 pmSSW 6.0 7.0----29.78- 37.6 41.2----
2024-02-22 07:48 pmSSW 5.1 7.0----29.78- 37.4 41.2----
2024-02-22 07:42 pmSSW 5.1 8.9----29.79- 37.6 41.2----
2024-02-22 07:36 pmSSW 5.1 7.0----29.79- 37.4 41.2----
2024-02-22 07:30 pmSSW 5.1 7.0----29.79- 37.4 41.2----
2024-02-22 07:24 pm SW 5.1 6.0----29.79- 37.4 41.2----
2024-02-22 07:18 pm SW 5.1 8.0----29.79- 37.4 41.2----
2024-02-22 07:12 pm SW 5.1 8.0----29.79- 37.4 41.2----
2024-02-22 07:06 pmSSW 5.1 7.0----29.79- 37.4 41.2----
2024-02-22 07:00 pmSSW 5.1 7.0----29.78-0.04 37.2 41.0----
2024-02-22 06:54 pmSSW 6.0 8.0----29.78- 37.2 41.2----
2024-02-22 06:48 pmSSW 5.1 8.0----29.78- 37.2 41.2----
2024-02-22 06:42 pmSSW 7.0 9.9----29.78- 37.2 41.0----
2024-02-22 06:36 pmSSW 5.1 8.0----29.78- 37.2 41.0----
2024-02-22 06:30 pmSSW 7.0 9.9----29.79-- 41.0----
2024-02-22 06:24 pmSSW 6.0 8.9----29.78-- 41.0----
2024-02-22 06:00 pm S 4.1 9.9----29.78-0.05- 41.2----
2024-02-22 05:54 pmSSW 8.0 9.9----29.80-- 41.2----
2024-02-22 05:48 pmSSW 8.0 11.1----29.80- 37.8 41.2----
2024-02-22 05:42 pmSSW 6.0 8.0----29.80- 37.8 41.2----
2024-02-22 05:36 pmSSW 7.0 11.1----29.80- 37.8 41.0----
2024-02-22 05:30 pmSSW 7.0 9.9----29.80- 37.8 41.0----
2024-02-22 05:24 pmSSW 7.0 12.0----29.80- 37.6 41.2----
2024-02-22 05:18 pmSSW 8.0 11.1----29.80- 37.6 41.2----
2024-02-22 05:12 pmSSW 6.0 9.9----29.80- 37.8 41.2----
2024-02-22 05:06 pmSSW 6.0 9.9----29.80- 37.6 41.2----
2024-02-22 05:00 pmSSW 6.0 8.9----29.80-0.07 37.6 41.2----
2024-02-22 04:54 pmSSW 7.0 9.9----29.80- 37.8 41.0----